Regional Weather Roundup
Issued by NWS

Home | Current Version | Previous Version | Text Only | Print | Product List | Glossary Off
Versions: 1 2 3 4 5 6 7 8 9 10 11 12 13 14 15 16 17 18 19 20 21 22 23 24 25 26 27 28 29 30 31 32 33 34 35 36 37 38 39 40 41 42 43 44 45 46 47 48 49 50

367
ASUS43 KLMK 110510
RWRKY
KENTUCKY REGIONAL WEATHER ROUNDUP
NATIONAL WEATHER SERVICE LOUISVILLE KY
1200 AM EST THU FEB 11 2016

NOTE "FAIR" INDICATES FEW OR NO CLOUDS BELOW 12,000 FEET
WITH NO SIGNIFICANT WEATHER AND/OR OBSTRUCTIONS TO VISIBILITY.

KYZ001>023-026-027-061>063-070>075-110600-
WESTERN AND SOUTH CENTRAL KENTUCKY

CITY           SKY/WX    TMP DP  RH WIND       PRES   REMARKS
PADUCAH        CLOUDY    25  19  78 SE5       30.15F WCI  19
HENDERSON      CLOUDY    21  18  86 CALM      30.19F
OWENSBORO      CLOUDY    22  18  85 CALM      30.21S
HOPKINSVILLE   CLOUDY    24  20  83 SE3       30.17F
BOWLING GREEN  CLOUDY    24  18  77 W6        30.21S WCI  17
GLASGOW        CLOUDY    23  18  81 W6        30.19S WCI  16
$$

KYZ024-025-028>034-038-045-046-053-110600-
NORTH CENTRAL KENTUCKY

CITY           SKY/WX    TMP DP  RH WIND       PRES   REMARKS
LOUISVILLE/SDF PTCLDY    21  10  62 W9        30.18S WCI  11
LOUISVILLE/LOU PTCLDY    21  10  62 W6        30.19R WCI  13
FORT KNOX      CLOUDY    21  16  79 W9        30.16S WCI  11
$$

KYZ035>037-039>044-047>052-055>060-089>105-110600-
NORTHEAST KENTUCKY

CITY           SKY/WX    TMP DP  RH WIND       PRES   REMARKS
LEXINGTON      CLOUDY    18   9  68 W6        30.15R WCI  10
COVINGTON      CLOUDY    12   4  70 SW5       30.14R WCI   4
FRANKFORT      CLOUDY    19   9  65 SW3       30.15R
$$

KYZ054-064>069-076>088-106>120-110600-
SOUTHEAST KENTUCKY

CITY           SKY/WX    TMP DP  RH WIND       PRES   REMARKS
JACKSON        PTCLDY    16   7  67 SW3       30.11S
LONDON         CLOUDY    20   9  62 W5        30.14S WCI  13
SOMERSET       CLOUDY    21  12  68 W5        30.18S WCI  15
MIDDLESBORO    CLOUDY    23  10  56 CALM      30.15S
MONTICELLO     CLOUDY    23  16  74 W9G21     30.18S WCI  13
$$





USA.gov is the U.S. government's official web portal to all federal, state and local government web resources and services.